(247484) = 2002 LC24

Discovered at Socorro on 2002-06-06 by LINEAR.

Orbit

Orbit type: Mars-crosser

Note: WebGL enabled browser required.

epoch2023-09-13.0
epoch JD2460200.5
perihelion date2022-10-23.48784
perihelion JD2459875.98784
argument of perihelion (°)206.80019
ascending node (°)281.13968
inclination (°)29.71982
eccentricity0.1839502
perihelion distance (AU)1.5712047
Tisserand w.r.t. Jupiter3.7
ΔV w.r.t. Earth (km/sec)12.0
semimajor axis (AU)1.9253783
mean anomaly (°)119.71834
mean daily motion (°/day)0.36891790
aphelion distance (AU)2.280
period (years)2.67
P-vector [x]-0.55664286
P-vector [y]0.82300548
P-vector [z]0.11318440
Q-vector [x]-0.67345803
Q-vector [y]-0.36726820
Q-vector [z]-0.64153593
absolute magnitude15.85
phase slope0.15
uncertainty0
referenceMPEC 2024-A34
observations used659
oppositions14
arc length (days)15805
first opposition used1980
last opposition used2023
residual rms (arc-secs)0.67
perturbers coarse indicatorM-v
perturbers precise indicator003Ek
first observation date used1980-03-14.0
last observation date used2023-06-22.0
computer nameMPCLINUX
JD of orbit computation2456494.375052
perihelion JD uncertainty (days)6.4194E-05
argument of perihelion uncertainty (°)2.9280E-05
ascending node uncertainty (°)1.0665E-05
inclination uncertainty (°)1.7774E-05
eccentricity uncertainty 1.5658E-07
perihelion distance uncertainty (AU)3.0239E-07
Minimum Orbit Intersection Distances (in AU)
for orbit epoch: 2460200.5, reference: E2024-A34
Mercury1.26655
Venus0.87195
Earth0.60589
Mars0.01287
Jupiter2.90639
Saturn7.43779
Uranus17.019
Neptune27.9619

Observations

670 total observations over interval: 1980 03 14.40353 – 2023 06 22.818271
These data are available for download (format description).

Date (UT) J2000 RA J2000 Dec Magn Location Ref
1980 03 14.40353 07 14 22.31 -20 07 38.1   260 – Siding Spring Observatory-DSS MPS 268778
1980 03 14.44173 07 14 23.51 -20 07 36.1   260 – Siding Spring Observatory-DSS MPS 268778
1980 03 18.39814 07 16 43.38 -20 05 26.8   260 – Siding Spring Observatory-DSS MPS 268778
1980 03 18.44328 07 16 45.07 -20 05 24.9   260 – Siding Spring Observatory-DSS MPS 268778
2002 06 06.36631 19 34 50.87 -27 23 12.3 18.2   704 – Lincoln Laboratory ETS, New Mexico MPS 57877
2002 06 06.37965 19 34 49.95 -27 23 04.3 18.7   704 – Lincoln Laboratory ETS, New Mexico MPS 57877
2002 06 06.39346 19 34 48.93 -27 22 56.4 18.6   704 – Lincoln Laboratory ETS, New Mexico MPS 57877
2002 06 06.40737 19 34 47.95 -27 22 48.8 18.4   704 – Lincoln Laboratory ETS, New Mexico MPS 57877
2002 06 08.37262 19 32 25.65 -27 03 22.6 18.3   704 – Lincoln Laboratory ETS, New Mexico MPS 57877
2002 06 08.37267 19 32 25.66 -27 03 21.3 18.3   704 – Lincoln Laboratory ETS, New Mexico MPS 57877
2002 06 08.37718 19 32 25.32 -27 03 19.7 18.2   704 – Lincoln Laboratory ETS, New Mexico MPS 57877
2002 06 08.38602 19 32 24.61 -27 03 14.7 18.9   704 – Lincoln Laboratory ETS, New Mexico MPS 57877
2002 06 08.38653 19 32 24.61 -27 03 12.7 18.7   704 – Lincoln Laboratory ETS, New Mexico MPS 57877
2002 06 08.39108 19 32 24.24 -27 03 10.8 18.6   704 – Lincoln Laboratory ETS, New Mexico MPS 57877
2002 06 08.39984 19 32 23.58 -27 03 06.0 19.0   704 – Lincoln Laboratory ETS, New Mexico MPS 57877
2002 06 08.40051 19 32 23.61 -27 03 05.3 19.3   704 – Lincoln Laboratory ETS, New Mexico MPS 57877
2002 06 08.40512 19 32 23.10 -27 03 02.6 19.2   704 – Lincoln Laboratory ETS, New Mexico MPS 57877
2002 06 08.42844 19 32 21.26 -27 02 48.3 19.5   704 – Lincoln Laboratory ETS, New Mexico MPS 57877
2002 06 09.55718 19 30 55.79 -26 51 17.1 18.2 R 474 – Mount John Observatory, Lake Tekapo MPS 57877
2002 06 09.55926 19 30 55.59 -26 51 15.5 17.6 R 474 – Mount John Observatory, Lake Tekapo MPS 57877
2002 06 09.56134 19 30 55.43 -26 51 14.8 18.0 R 474 – Mount John Observatory, Lake Tekapo MPS 57877
2002 06 09.56470 19 30 55.19 -26 51 12.5 18.0 R 474 – Mount John Observatory, Lake Tekapo MPS 57877
2002 06 09.69375 19 30 44.90 -26 49 53.5 18.3 R 474 – Mount John Observatory, Lake Tekapo MPS 57877
2002 06 09.69653 19 30 44.67 -26 49 52.1 18.8 R 474 – Mount John Observatory, Lake Tekapo MPS 57877
2002 06 09.70313 19 30 44.14 -26 49 48.0 18.4 R 474 – Mount John Observatory, Lake Tekapo MPS 57877
2002 06 10.38551 19 29 50.96 -26 42 57.8 19.0   704 – Lincoln Laboratory ETS, New Mexico MPS 57877
2002 06 10.38559 19 29 50.91 -26 42 57.1 19.2   704 – Lincoln Laboratory ETS, New Mexico MPS 57877
2002 06 10.38626 19 29 50.87 -26 42 57.0 19.4   704 – Lincoln Laboratory ETS, New Mexico MPS 57877
2002 06 10.39623 19 29 50.02 -26 42 50.8 19.1   704 – Lincoln Laboratory ETS, New Mexico MPS 57877
2002 06 10.39899 19 29 49.85 -26 42 49.0 19.2   704 – Lincoln Laboratory ETS, New Mexico MPS 57877
2002 06 10.40016 19 29 49.72 -26 42 48.4 18.9   704 – Lincoln Laboratory ETS, New Mexico MPS 57877
2002 06 10.40683 19 29 49.17 -26 42 44.0 19.1   704 – Lincoln Laboratory ETS, New Mexico MPS 57877
2002 06 10.41335 19 29 48.72 -26 42 39.7 18.7   704 – Lincoln Laboratory ETS, New Mexico MPS 57877
2002 06 10.41407 19 29 48.57 -26 42 40.2 19.2   704 – Lincoln Laboratory ETS, New Mexico MPS 57877
2002 06 10.41743 19 29 48.30 -26 42 37.6 19.1   704 – Lincoln Laboratory ETS, New Mexico MPS 57877
2002 06 10.42696 19 29 47.56 -26 42 31.3 18.6   704 – Lincoln Laboratory ETS, New Mexico MPS 57877
2002 06 10.42798 19 29 47.50 -26 42 31.3 18.9   704 – Lincoln Laboratory ETS, New Mexico MPS 57877
2002 06 13.33655 19 25 49.15 -26 12 04.6 18.4   704 – Lincoln Laboratory ETS, New Mexico MPS 57877
2002 06 13.34103 19 25 48.76 -26 12 01.7 18.9   704 – Lincoln Laboratory ETS, New Mexico MPS 57877
2002 06 13.35571 19 25 47.49 -26 11 51.4 18.7   704 – Lincoln Laboratory ETS, New Mexico MPS 57877
2002 06 13.36881 19 25 46.42 -26 11 43.8 18.9   704 – Lincoln Laboratory ETS, New Mexico MPS 57877
2002 06 13.37803 19 25 45.53 -26 11 37.9 18.7   704 – Lincoln Laboratory ETS, New Mexico MPS 57877
2002 06 13.38237 19 25 45.19 -26 11 35.8 18.9   704 – Lincoln Laboratory ETS, New Mexico MPS 57877
2002 06 13.39193 19 25 44.27 -26 11 28.7 19.1   704 – Lincoln Laboratory ETS, New Mexico MPS 57877
2002 06 13.39575 19 25 43.96 -26 11 27.1 18.5   704 – Lincoln Laboratory ETS, New Mexico MPS 57877
2002 07 05.28512 18 50 22.83 -21 50 29.6 18.1   704 – Lincoln Laboratory ETS, New Mexico MPS 59022
2002 07 05.29843 18 50 21.42 -21 50 19.8 18.3   704 – Lincoln Laboratory ETS, New Mexico MPS 59022
2002 07 05.31176 18 50 20.04 -21 50 09.5 18.5   704 – Lincoln Laboratory ETS, New Mexico MPS 59022
2003 10 25.39557 07 52 59.65 +40 44 18.3 18.3 R 699 – Lowell Observatory-LONEOS MPS 93675
2003 10 25.40571 07 53 00.62 +40 44 12.1   699 – Lowell Observatory-LONEOS MPS 93675
2003 10 25.41585 07 53 01.62 +40 44 05.0   699 – Lowell Observatory-LONEOS MPS 93675
2003 10 25.42595 07 53 02.53 +40 43 58.3   699 – Lowell Observatory-LONEOS MPS 93675
2003 11 04.41591 08 07 01.42 +38 34 32.9 18.6   704 – Lincoln Laboratory ETS, New Mexico MPS 93675
2003 11 04.42801 08 07 02.20 +38 34 23.2 19.1   704 – Lincoln Laboratory ETS, New Mexico MPS 93675
2003 11 04.44015 08 07 03.09 +38 34 12.5 19.1   704 – Lincoln Laboratory ETS, New Mexico MPS 93675
2003 12 04.38880 08 19 42.79 +29 17 24.6 18.2   704 – Lincoln Laboratory ETS, New Mexico MPS 93675
2003 12 04.40084 08 19 42.42 +29 17 06.8 18.6   704 – Lincoln Laboratory ETS, New Mexico MPS 93675
2003 12 04.41301 08 19 41.99 +29 16 48.9 18.4   704 – Lincoln Laboratory ETS, New Mexico MPS 93675
2003 12 04.42495 08 19 41.63 +29 16 31.7 18.1   704 – Lincoln Laboratory ETS, New Mexico MPS 93675
2003 12 04.43697 08 19 41.24 +29 16 14.4 18.1   704 – Lincoln Laboratory ETS, New Mexico MPS 93675
2003 12 16.33587 08 09 28.56 +23 48 45.9 16.7 R 699 – Lowell Observatory-LONEOS MPS 93675
2003 12 16.35259 08 09 27.27 +23 48 15.6   699 – Lowell Observatory-LONEOS MPS 93675
2003 12 16.36926 08 09 25.89 +23 47 44.0   699 – Lowell Observatory-LONEOS MPS 93675
2003 12 16.38590 08 09 24.59 +23 47 13.8   699 – Lowell Observatory-LONEOS MPS 93675
2003 12 16.38836 08 09 24.32 +23 47 09.9 16.5 V 703 – Catalina Sky Survey MPS 93675
2003 12 16.39760 08 09 23.61 +23 46 52.5 16.8 V 703 – Catalina Sky Survey MPS 93675
2003 12 16.40684 08 09 22.87 +23 46 35.8 15.9 V 703 – Catalina Sky Survey MPS 93675
2003 12 16.41610 08 09 22.12 +23 46 18.8 13.8 V 703 – Catalina Sky Survey MPS 93675
2003 12 19.33410 08 05 26.79 +22 13 59.4 16.5   704 – Lincoln Laboratory ETS, New Mexico MPS 93675
2003 12 19.34733 08 05 25.56 +22 13 33.9 16.9   704 – Lincoln Laboratory ETS, New Mexico MPS 93675
2003 12 19.36068 08 05 24.35 +22 13 08.1 17.1   704 – Lincoln Laboratory ETS, New Mexico MPS 93675
2003 12 19.37395 08 05 23.14 +22 12 42.2 17.4   704 – Lincoln Laboratory ETS, New Mexico MPS 93675
2003 12 19.38708 08 05 21.95 +22 12 16.5 17.2   704 – Lincoln Laboratory ETS, New Mexico MPS 93675
2003 12 21.40134 08 02 20.66 +21 05 47.6 16.7   704 – Lincoln Laboratory ETS, New Mexico MPS 94633
2003 12 21.41468 08 02 19.35 +21 05 20.6 16.8   704 – Lincoln Laboratory ETS, New Mexico MPS 94633
2003 12 21.42774 08 02 18.06 +21 04 54.4 16.9   704 – Lincoln Laboratory ETS, New Mexico MPS 94633
2003 12 21.44099 08 02 16.76 +21 04 27.6 17.0   704 – Lincoln Laboratory ETS, New Mexico MPS 94633
2003 12 21.45405 08 02 15.48 +21 04 00.8 17.2   704 – Lincoln Laboratory ETS, New Mexico MPS 94633
2003 12 25.61168 07 55 17.81 +18 40 16.1 17.4   608 – Haleakala-AMOS MPS 94633
2003 12 25.62224 07 55 16.65 +18 39 53.3 17.7   608 – Haleakala-AMOS MPS 94633
2003 12 25.63280 07 55 15.47 +18 39 30.4 17.8   608 – Haleakala-AMOS MPS 94633
2003 12 27.34363 07 52 09.49 +17 38 01.9 15.9 V 703 – Catalina Sky Survey MPS 95756
2003 12 27.35767 07 52 07.88 +17 37 31.6 16.5 V 703 – Catalina Sky Survey MPS 95756
2003 12 27.37171 07 52 06.18 +17 37 00.7 16.3 V 703 – Catalina Sky Survey MPS 95756
2003 12 27.38582 07 52 04.66 +17 36 27.5 15.6 V 703 – Catalina Sky Survey MPS 95756
2004 01 02.94269 07 39 08.24 +13 32 01.0   127 – Bornheim MPS 97741
